[[{"header":{"parameterUnit":"m.s-1","parameterCategory":1,"la1":30.2992,"la2":30.254,"lo1":-89.0895,"lo2":-89.0443,"dy":0.0025,"dx":0.0025,"nx":19,"ny":19,"refTime":"2026-03-16T03:00:00:Z","depth":0,"parameterNumber":2,"parameterNumberName":"U-component_of_WINDS"},"data":[0,0,0,4.7565,4.7573,4.7959,4.796,4.8439,4.8442,0,0,0,0,0,0,0,0,0,0,0,4.7431,4.7433,4.7564,4.7573,4.7958,4.796,4.8438,4.8443,0,0,0,0,0,0,0,0,0,0,0,4.743,4.7432,4.7435,4.7575,4.7958,4.7961,4.8437,4.8154,0,0,0,0,0,0,0,0,0,0,4.7783,4.7636,4.7432,4.7435,4.7577,4.7958,4.7961,4.8141,4.8171,4.8254,0,4.8312,0,4.8384,4.8473,4.8474,0,0,0,4.7591,4.761,4.7731,4.7436,4.758,4.7957,4.779,4.8158,4.8193,4.8295,4.8319,4.8338,4.8392,4.8475,4.8478,4.8875,4.8876,0,0,4.757,4.7491,4.7707,4.7753,4.7681,4.7777,4.7801,4.818,4.8205,4.8321,4.835,4.84,4.8478,4.8482,4.8874,4.8875,0,0,0,4.7497,4.7475,4.7588,4.7732,4.7802,4.7788,4.7816,4.8188,4.8231,4.8355,4.8406,4.8481,4.8487,4.8873,4.8874,4.8846,0,0,0,4.7485,4.7433,4.7578,4.7534,4.7795,4.7998,4.7815,4.8205,4.825,4.8403,4.8481,4.8491,4.8872,4.8874,4.8844,4.8846,0,0,0,4.7413,4.7425,4.7473,4.7529,4.7691,4.7994,4.8059,4.8217,4.828,4.8474,4.8492,4.8871,4.8873,4.8843,4.8844,4.8928,0,0,0,4.7315,4.7444,4.7471,4.7637,4.7687,4.797,4.8057,4.8274,4.8437,4.8483,4.8872,4.8874,4.8842,4.8842,4.8926,4.8983,4.8998,0,0,4.7434,4.7455,4.756,4.7595,4.7851,4.7918,4.8177,4.8404,4.8499,4.8747,4.8758,4.8845,4.8843,4.8927,4.9118,4.913,0,0,0,4.7571,4.7644,4.773,4.7877,4.805,4.8203,4.8398,4.8485,4.8698,4.8606,4.8901,4.8903,4.8956,4.8987,4.8997,4.9049,4.8885,4.8885,4.8885,4.7626,4.7736,4.7918,4.8076,4.822,4.8422,4.8553,4.8706,4.8778,4.8847,4.892,4.9021,4.9054,4.9063,4.9115,4.8961,4.8961,4.8961,4.8961,4.7811,4.7933,4.8027,4.8235,4.8356,4.8538,4.8743,4.879,4.8982,4.8974,4.9026,4.9005,4.9072,4.9125,4.896,4.896,4.896,4.896,4.896,4.7858,4.7936,4.8035,4.8263,4.8431,4.8593,4.8773,4.8879,4.8982,4.9034,4.9126,4.9126,4.9142,4.907,4.9071,4.9071,4.9071,4.9071,4.9072,4.7866,4.7979,4.8112,4.831,4.8422,4.8584,4.8796,4.8913,4.9072,4.9137,4.9138,4.9207,4.9056,4.9016,4.9078,4.9077,4.9076,4.9075,4.9075,4.801,4.7995,4.8199,4.831,4.8557,4.8719,4.8854,4.9086,4.92,4.9288,4.9349,4.922,4.9251,4.9244,4.9211,4.9321,4.9321,4.9321,4.9321,4.8048,4.8074,4.8309,4.8482,4.8666,4.8809,4.905,4.9221,4.9397,4.9477,4.9479,4.9446,4.9433,4.9473,4.9461,4.9432,4.9595,4.9595,4.9596,4.8144,4.8193,4.8369,4.8532,4.8735,4.8911,4.9142,4.9348,4.9546,4.9609,4.9544,4.9532,4.948,4.9457,4.9511,4.949,4.944,0,0]},{"header":{"parameterUnit":"m.s-1","parameterCategory":1,"la1":30.2992,"la2":30.254,"lo1":-89.0895,"lo2":-89.0443,"dy":0.0025,"dx":0.0025,"nx":19,"ny":19,"refTime":"2026-03-16T03:00:00:Z","depth":0,"parameterNumber":3,"parameterNumberName":"V-component_of_WINDS"},"data":[0,0,0,-10.4468,-10.4475,-10.4823,-10.4824,-10.5283,-10.5287,0,0,0,0,0,0,0,0,0,0,0,-10.4374,-10.4377,-10.4467,-10.4476,-10.4823,-10.4824,-10.5282,-10.5287,0,0,0,0,0,0,0,0,0,0,0,-10.4372,-10.4376,-10.438,-10.4477,-10.4823,-10.4825,-10.5281,-10.5014,0,0,0,0,0,0,0,0,0,0,-10.4674,-10.4596,-10.4375,-10.438,-10.4479,-10.4822,-10.4825,-10.5001,-10.5031,-10.5132,0,-10.5225,0,-10.5264,-10.5319,-10.5321,0,0,0,-10.4469,-10.4571,-10.4657,-10.4381,-10.4483,-10.4822,-10.4664,-10.5017,-10.5051,-10.5172,-10.5231,-10.5248,-10.5271,-10.5322,-10.5325,-10.5938,-10.5941,0,0,-10.445,-10.444,-10.4634,-10.4679,-10.4627,-10.4653,-10.4675,-10.5038,-10.5101,-10.5233,-10.5258,-10.5279,-10.5325,-10.5329,-10.5935,-10.5938,0,0,0,-10.4399,-10.4427,-10.4504,-10.4661,-10.4722,-10.4664,-10.4689,-10.5085,-10.5111,-10.5263,-10.5284,-10.5328,-10.5334,-10.5931,-10.5936,-10.6089,0,0,0,-10.4388,-10.4398,-10.4496,-10.4494,-10.4716,-10.4908,-10.4729,-10.5086,-10.5127,-10.5282,-10.5328,-10.5338,-10.5927,-10.5934,-10.6077,-10.6163,0,0,0,-10.4348,-10.4393,-10.4447,-10.4492,-10.4642,-10.4903,-10.4949,-10.5095,-10.5141,-10.5321,-10.534,-10.5925,-10.5932,-10.6066,-10.6146,-10.6326,0,0,0,-10.4302,-10.4573,-10.4449,-10.476,-10.4639,-10.4994,-10.4947,-10.5211,-10.5383,-10.5331,-10.5928,-10.5935,-10.6063,-10.6135,-10.6315,-10.6479,-10.6546,0,0,-10.4639,-10.4613,-10.4797,-10.4696,-10.5072,-10.4941,-10.5339,-10.5504,-10.5528,-10.58,-10.5815,-10.6081,-10.6144,-10.6324,-10.6914,-10.6967,0,0,0,-10.4901,-10.5034,-10.5135,-10.5301,-10.5435,-10.5559,-10.5665,-10.5727,-10.5959,-10.5666,-10.6192,-10.623,-10.6336,-10.6415,-10.6461,-10.6554,-10.597,-10.5969,-10.5969,-10.5365,-10.5384,-10.5692,-10.5755,-10.5916,-10.6025,-10.6158,-10.6261,-10.6229,-10.6354,-10.6436,-10.6792,-10.6884,-10.6918,-10.7015,-10.652,-10.6521,-10.6521,-10.6522,-10.5864,-10.6057,-10.6014,-10.6297,-10.6317,-10.6555,-10.6672,-10.6643,-10.6868,-10.673,-10.6824,-10.6675,-10.6975,-10.7062,-10.6533,-10.6531,-10.653,-10.6529,-10.6528,-10.6173,-10.627,-10.6342,-10.6588,-10.6775,-10.6827,-10.7049,-10.7056,-10.7065,-10.7157,-10.7249,-10.7246,-10.7249,-10.72,-10.7201,-10.7202,-10.7203,-10.7204,-10.7205,-10.6468,-10.6545,-10.6731,-10.69,-10.7011,-10.7157,-10.7271,-10.738,-10.7503,-10.7491,-10.7492,-10.7453,-10.6999,-10.6888,-10.7224,-10.7221,-10.7218,-10.7217,-10.7215,-10.6974,-10.6862,-10.7149,-10.7261,-10.7463,-10.7652,-10.7659,-10.7881,-10.7971,-10.8081,-10.8022,-10.7684,-10.7658,-10.7622,-10.7531,-10.8014,-10.8013,-10.8014,-10.8014,-10.7239,-10.7227,-10.7526,-10.7704,-10.7879,-10.7917,-10.8245,-10.8338,-10.8416,-10.8474,-10.8405,-10.8282,-10.8245,-10.8241,-10.8192,-10.8108,-10.8726,-10.8727,-10.8727,-10.7555,-10.7561,-10.7838,-10.7915,-10.8075,-10.8213,-10.8523,-10.8731,-10.8794,-10.8757,-10.8522,-10.8492,-10.8294,-10.8227,-10.8187,-10.811,-10.7954,0,0]}]]